Regional Weather Roundup
Issued by NWS

Home | Current Version | Previous Version | Graphics & Text | Print | Product List | Glossary On
Versions: 1 2 3 4 5 6 7 8 9 10 11 12 13 14 15 16 17 18 19 20 21 22 23 24 25 26 27 28 29 30 31 32 33 34 35 36 37 38 39 40 41 42 43 44 45 46 47 48 49 50
000
ASUS43 KLOT 061003
RWRIL

ILLINOIS REGIONAL WEATHER ROUNDUP
NATIONAL WEATHER SERVICE CHICAGO/ROMEOVILLE IL
400 AM CST TUE DEC 06 2016

NOTE: "FAIR" INDICATES FEW OR NO CLOUDS BELOW 12,000 FEET WITH NO
SIGNIFICANT WEATHER AND/OR OBSTRUCTIONS TO VISIBILITY.

* THESE STATIONS ARE NOT UNDER NWS QUALITY CONTROL. THEY ALSO MAY NOT
  REPORT WEATHER SUCH AS PRECIPITATION OR FOG.

ILZ001-002-007-009-015-016-024-061100-
NORTHWEST ILLINOIS

CITY           SKY/WX    TMP DP  RH WIND       PRES   REMARKS
MOLINE         FOG       34  32  92 E7        29.81F VSB 3/4 WCI  28
$$

ILZ003-004-008-010-011-017-018-061100-
NORTH CENTRAL ILLINOIS

CITY           SKY/WX    TMP DP  RH WIND       PRES   REMARKS
ROCKFORD       FOG       33  32  96 S5        29.85F VSB 1   WCI  29
FREEPORT*      FOG       32  31  99 CALM      29.85F VSB 1/2
ROCHELLE*      CLOUDY    32  32 100 SE6       29.84F FOG     WCI  26
$$

ILZ005-006-012>014-019>023-061100-
NORTHEAST ILLINOIS

CITY           SKY/WX    TMP DP  RH WIND       PRES   REMARKS
CHICAGO-OHARE  MOCLDY    29  29 100 CALM      29.82F FOG
CHICAGO-MIDWAY PTCLDY    32  28  85 E3        29.83F FOG
AURORA         FOG       26  25  96 CALM      29.82F VSB 1/4
LANSING*       CLOUDY    30  30 100 E6        29.83F FOG     WCI  24
WAUKEGAN       CLOUDY    37  34  89 SE3       29.84F
DUPAGE AIRPORT CLOUDY    29  27  92 E5        29.81F FOG     WCI  24
WHEELING       FOG       29  28  96 N3        29.85F VSB 3/4
NORTHERLY ISL    N/A     37  33  85 SE10        N/A  WCI  30
$$

LMZ740>746-061100-
SOUTHERN LAKE MICHIGAN

STATION/POSITION SKY/WX   TEMP    WIND        PRES    VSBY  WAVE
                          AIR SEA DIR/SP/G                  HT/PER
                          (F)     (DEG/KT/KT) (MB)    (MI)  (FT/S)
HARRISON CRIB              39     130/ 14/ 16   N/A
BURNHAM HARBOR             36     120/ 10/ 11   N/A
CALUMET HARBOR             36      90/  8/ 10 1010.0F
BURNS HARBOR               33      90/  7/ 10 1011.2F
$$

ILZ025>027-034>036-040-047-049-050-058-095>099-061100-
WEST-CENTRAL ILLINOIS

CITY           SKY/WX    TMP DP  RH WIND       PRES   REMARKS
QUINCY         CLOUDY    35  34  96 CALM      29.80S FOG
GALESBURG*     FOG       33  33 100 CALM      29.81F VSB 1/2
MACOMB*        CLOUDY    35  35  99 W3        29.82F FOG
JACKSONVILLE*  CLOUDY    33  32  98 NW7       29.79R FOG     WCI  26
$$

ILZ028>032-037-038-041>044-048-051>054-059>061-061100-
CENTRAL ILLINOIS

CITY           SKY/WX    TMP DP  RH WIND       PRES   REMARKS
BLOOMINGTON    CLOUDY    30  30 100 NE8       29.78F FOG     WCI  22
DECATUR        CLOUDY    35  33  92 CALM      29.78F FOG
PEORIA         FOG       32  32 100 NE7       29.80R VSB 1/4 WCI  26
SPRINGFIELD    CLOUDY    34  32  92 E3        29.77F FOG
TAYLORVILLE    NOT AVBL
$$

ILZ033-039-045-046-055>057-062-063-061100-
EAST-CENTRAL ILLINOIS

CITY           SKY/WX    TMP DP  RH WIND       PRES   REMARKS
CHAMPAIGN      CLOUDY    35  32  88 E9        29.76F WCI  28
MATTOON        CLOUDY    36  33  89 N5        29.76R WCI  32
PARIS*         CLOUDY    37  35  93 CALM      29.77R
$$

ILZ079-100>102-061100-
SOUTHWEST ILLINOIS

CITY           SKY/WX    TMP DP  RH WIND       PRES   REMARKS
BELLEVILLE     DRIZZLE   38  38  99 N3        29.74F
CAHOKIA*       CLOUDY    39  36  89 N3        29.76F
SPARTA*        CLOUDY    37  36  94 N3        29.74F FOG
$$

ILZ064>066-069>071-074>076-080>082-084>086-088>090-092>094-061100-
SOUTH-CENTRAL ILLINOIS

CITY           SKY/WX    TMP DP  RH WIND       PRES   REMARKS
CARBONDALE     RAIN      39  39 100 N8        29.71F FOG     WCI  33
CAIRO*         RAIN      40  40 100 N7        29.68F
CENTRALIA*     CLOUDY    39  38  95 CALM      29.74F
SALEM*         CLOUDY    40  37  89 NW5       29.76R
$$

ILZ067-068-072-073-078-083-087-091-061100-
SOUTHEAST ILLINOIS

CITY           SKY/WX    TMP DP  RH WIND       PRES   REMARKS
LAWRENCEVILLE  LGT RAIN  41  37  86 NE9       29.73F
HARRISBURG*    MIX PCPN  40  40  99 N7        29.72F
ROBINSON*      LGT RAIN  38  36  92 E3        29.75F
CARMI*         RAIN      40  40 100 N5        29.70F
$$

ABBREVIATIONS USED IN REMARKS
   TC - TEMPERATURE IN CELSIUS
  WCI - WIND CHILL INDEX
   HX - HEAT INDEX
  VSB - VISIBILITY
$$




USA.gov is the U.S. government's official web portal to all federal, state and local government web resources and services.